• Join FlightAware (Why Join?)
  • Login
  • US Flag 
07:31AM EST


 

Airport Tracker/Info


-or-


 

Live Flight TrackerFlight Track Log ✈ ASQ5678 ✈ 09-May-2013 ✈ KMKE - KIAH

Flight Track Log - Related Links

Times and Time Zones

All times are in EDT time to prevent confusion due to time zone crossing. See the ASQ5678 flight status page for this flight to view local times or setup timezone preferences in your user account.

Time Position Orientation Groundspeed Altitude Reporting Facility
EDT Latitude Longitude Course Direction KTS MPH feet Rate Location/Type
08:55AM 42.9167 -87.9000 249° West 181 208 1,400  Level KMKE
08:57AM 42.9519 -88.0964 284° West 261 300 6,600 2,220 Climbing Chicago Center
08:58AM 42.9334 -88.3061 270° West  Level FlightAware Approximate
08:58AM 42.9761 -88.1942 289° West 269 310 9,200  Level Chicago Center
08:59AM 42.9333 -88.4470 270° West  Level FlightAware Approximate
08:59AM 42.9819 -88.3003 274° West 287 330 10,800  Level Chicago Center
09:00AM 42.9188 -88.5842 249° West  Level FlightAware Approximate
09:00AM 42.9808 -88.4256 269° West 319 367 11,800  Level Chicago Center
09:01AM 42.9789 -88.5619 269° West 348 400 13,700 2,220 Climbing Chicago Center
09:03AM 42.9758 -88.7133 268° West 343 395 16,400 2,400 Climbing Chicago Center
09:04AM 42.9750 -88.8364 270° West 327 376 18,700 2,220 Climbing Chicago Center
09:05AM 42.9761 -88.9556 271° West 314 361 21,000 1,860 Climbing Chicago Center
09:06AM 42.9742 -89.0733 269° West 310 357 22,600 1,500 Climbing Chicago Center
09:07AM 42.9714 -89.1950 268° West 317 365 24,100 1,500 Climbing Chicago Center
09:08AM 42.9708 -89.3186 270° West 324 373 25,700 900 Climbing Chicago Center
09:09AM 42.9628 -89.4706 266° West 346 398 26,000 360 Climbing Chicago Center
09:10AM 42.9331 -89.6086 254° West 375 432 26,500 720 Climbing Chicago Center
09:11AM 42.9011 -89.7467 253° West 378 435 27,600 1,200 Climbing Chicago Center
09:12AM 42.8733 -89.8814 254° West 372 428 29,100 1,500 Climbing Chicago Center
09:13AM 42.8464 -90.0156 255° West 355 409 30,700 1,440 Climbing Chicago Center
09:14AM 42.8233 -90.1375 256° West 338 389 32,100 1,380 Climbing Chicago Center
09:15AM 42.7989 -90.2550 254° West 326 375 33,600 1,200 Climbing Chicago Center
09:16AM 42.7367 -90.3389 225° Southwest 318 366 34,700 840 Climbing Chicago Center
09:17AM 42.6642 -90.4403 226° Southwest 315 362 35,400 600 Climbing Chicago Center
09:18AM 42.6006 -90.5242 224° Southwest 318 366 36,000 240 Climbing Chicago Center
09:19AM 42.5375 -90.6122 226° Southwest 326 375 36,000  Level Chicago Center
09:20AM 42.4697 -90.7056 225° Southwest 346 398 36,000  Level Chicago Center
09:21AM 42.3872 -90.7878 216° Southwest 380 437 36,000  Level Chicago Center
09:22AM 42.2697 -90.8708 208° Southwest 397 457 36,000  Level Chicago Center
09:23AM 42.1700 -90.9406 207° Southwest 403 464 36,000  Level Chicago Center
09:24AM 42.0669 -91.0164 209° Southwest 419 482 36,000  Level Chicago Center
09:25AM 41.9642 -91.0947 210° Southwest 425 489 36,000  Level Chicago Center
09:26AM 41.8631 -91.1697 209° Southwest 419 482 36,000  Level Chicago Center
09:27AM 41.7486 -91.2150 196° South 436 502 36,000  Level Chicago Center
09:28AM 41.6075 -91.2542 192° South 434 499 36,000  Level Chicago Center
09:29AM 41.5036 -91.2867 193° South 437 503 36,000  Level Chicago Center
09:30AM 41.3925 -91.3642 208° Southwest 404 465 36,000  Level Chicago Center
09:31AM 41.3097 -91.4542 219° Southwest 389 448 36,000  Level Chicago Center
09:32AM 41.2217 -91.5514 220° Southwest 380 437 36,000  Level Chicago Center
09:34AM 41.1383 -91.6450 220° Southwest 390 449 36,000  Level Chicago Center
09:35AM 41.0436 -91.7486 220° Southwest 397 457 36,000  Level Chicago Center
09:36AM 40.9578 -91.8439 220° Southwest 403 464 36,000  Level Chicago Center
09:37AM 40.8722 -91.9389 220° Southwest 405 466 36,000  Level Chicago Center
09:38AM 40.7844 -92.0325 219° Southwest 407 468 36,000  Level Chicago Center
09:39AM 40.6811 -92.1453 220° Southwest 405 466 36,000  Level Chicago Center
09:40AM 40.5947 -92.2383 219° Southwest 402 463 36,000  Level Chicago Center
09:40AM 40.5603 -92.2753 219° Southwest 403 464 36,000  Level Kansas City Center
09:41AM 40.4808 -92.3603 219° Southwest 402 463 36,000  Level Kansas City Center
09:42AM 40.3944 -92.4536 219° Southwest 403 464 36,000  Level Kansas City Center
09:43AM 40.2992 -92.5558 219° Southwest 403 464 36,000  Level Kansas City Center
09:44AM 40.2158 -92.6444 219° Southwest 402 463 36,000  Level Kansas City Center
09:45AM 40.1178 -92.7475 219° Southwest 403 464 36,000  Level Kansas City Center
09:46AM 40.0344 -92.8364 219° Southwest 402 463 36,000  Level Kansas City Center
09:47AM 39.9475 -92.9267 219° Southwest 401 461 36,000  Level Kansas City Center
09:48AM 39.8625 -93.0172 219° Southwest 399 459 36,000  Level Kansas City Center
09:49AM 39.7789 -93.1072 220° Southwest 395 455 36,000  Level Kansas City Center
09:50AM 39.6756 -93.2125 218° Southwest 395 455 36,000  Level Kansas City Center
09:51AM 39.5908 -93.2997 218° Southwest 394 453 36,000  Level Kansas City Center
09:52AM 39.5072 -93.3883 219° Southwest 392 451 36,000  Level Kansas City Center
09:53AM 39.4236 -93.4750 219° Southwest 389 448 36,000  Level Kansas City Center
09:54AM 39.3392 -93.5622 219° Southwest 390 449 36,000  Level Kansas City Center
09:55AM 39.2450 -93.6608 219° Southwest 390 449 36,000  Level Kansas City Center
09:57AM 39.1639 -93.7442 219° Southwest 389 448 36,000  Level Kansas City Center
09:58AM 39.0678 -93.8411 218° Southwest 391 450 36,000  Level Kansas City Center
09:59AM 38.9856 -93.9239 218° Southwest 391 450 36,000  Level Kansas City Center
10:00AM 38.9036 -94.0089 219° Southwest 394 453 36,000  Level Kansas City Center
10:01AM 38.8069 -94.1058 218° Southwest 394 453 36,000  Level Kansas City Center
10:02AM 38.7097 -94.2042 218° Southwest 396 456 36,000  Level Kansas City Center
10:03AM 38.6258 -94.2878 218° Southwest 398 458 36,000  Level Kansas City Center
10:04AM 38.5411 -94.3736 218° Southwest 403 464 36,000  Level Kansas City Center
10:05AM 38.4406 -94.4728 218° Southwest 406 467 36,000  Level Kansas City Center
10:06AM 38.3547 -94.5594 218° Southwest 409 471 36,000  Level Kansas City Center
10:07AM 38.2439 -94.6417 210° Southwest 413 475 36,000  Level Kansas City Center
10:08AM 38.1475 -94.7031 207° Southwest 408 470 36,000  Level Kansas City Center
10:09AM 38.0511 -94.7656 207° Southwest 405 466 36,000  Level Kansas City Center
10:10AM 37.9375 -94.8433 208° Southwest 412 474 36,000  Level Kansas City Center
10:11AM 37.8406 -94.9072 207° Southwest 410 472 36,000  Level Kansas City Center
10:12AM 37.7275 -94.9792 207° Southwest 408 470 36,000  Level Kansas City Center
10:13AM 37.6392 -95.0361 207° Southwest 408 470 36,000  Level Kansas City Center
10:14AM 37.5169 -95.1128 206° Southwest 408 470 36,000  Level Kansas City Center
10:15AM 37.4169 -95.1792 208° Southwest 407 468 36,000  Level Kansas City Center
10:16AM 37.3178 -95.2411 206° Southwest 400 460 36,000  Level Kansas City Center
10:17AM 37.2189 -95.3047 207° Southwest 399 459 36,000  Level Kansas City Center
10:18AM 37.1203 -95.3656 206° Southwest 396 456 36,000  Level Kansas City Center
10:19AM 37.0225 -95.4281 207° Southwest 395 455 36,000  Level Kansas City Center
10:20AM 36.9233 -95.4900 207° Southwest 398 458 36,000  Level Kansas City Center
10:21AM 36.8253 -95.5533 207° Southwest 397 457 36,000  Level Kansas City Center
10:22AM 36.7058 -95.6269 206° Southwest 399 459 36,000  Level Kansas City Center
10:23AM 36.6075 -95.6892 207° Southwest 400 460 36,000  Level Kansas City Center
10:24AM 36.5008 -95.7567 207° Southwest 403 464 36,000  Level Kansas City Center
10:25AM 36.4089 -95.8139 207° Southwest 403 464 36,000  Level Kansas City Center
10:26AM 36.3083 -95.8761 207° Southwest 406 467 36,000  Level Kansas City Center
10:27AM 36.2072 -95.9386 207° Southwest 407 468 36,000  Level Kansas City Center
10:28AM 36.0850 -96.0144 207° Southwest 409 471 36,000  Level Kansas City Center
10:29AM 35.9803 -96.0703 203° Southwest 410 472 36,000  Level Kansas City Center
10:30AM 35.8667 -96.1017 193° South 414 476 36,000  Level Kansas City Center
10:31AM 35.7647 -96.1308 193° South 417 480 36,000  Level Kansas City Center
10:32AM 35.6272 -96.1681 192° South 420 483 36,000  Level Kansas City Center
10:33AM 35.5711 -96.1836 193° South 423 487 36,000  Level Fort Worth Center
10:34AM 35.4569 -96.2158 193° South 428 493 36,000  Level Fort Worth Center
10:35AM 35.3425 -96.2481 193° South 428 493 36,000 360 Level Fort Worth Center
10:36AM 35.2300 -96.2775 192° South 428 493 36,800 480 Climbing Fort Worth Center
10:37AM 35.1239 -96.3094 194° South 417 480 37,000 60 Climbing Fort Worth Center
10:38AM 35.0117 -96.3386 192° South 412 474 37,000  Level Fort Worth Center
10:39AM 34.9014 -96.3681 192° South 412 474 37,000  Level Fort Worth Center
10:40AM 34.7911 -96.3997 193° South 412 474 37,000  Level Fort Worth Center
10:41AM 34.6847 -96.4286 193° South 407 468 37,000  Level Fort Worth Center
10:42AM 34.5808 -96.4550 192° South 401 461 37,000  Level Fort Worth Center
10:43AM 34.4767 -96.4839 193° South 390 449 37,000  Level Fort Worth Center
10:44AM 34.3725 -96.5128 193° South 390 449 37,000  Level Fort Worth Center
10:45AM 34.2683 -96.5414 193° South 390 449 37,000  Level Fort Worth Center
10:46AM 34.1664 -96.5700 193° South 390 449 37,000  Level Fort Worth Center
10:47AM 34.0622 -96.5961 192° South 390 449 37,000  Level Fort Worth Center
10:48AM 33.9581 -96.6247 193° South 390 449 37,000  Level Fort Worth Center
10:49AM 33.8539 -96.6531 193° South 390 449 37,000  Level Fort Worth Center
10:50AM 33.7683 -96.6764 193° South 373 429 37,000  Level Fort Worth Center
10:51AM 33.6539 -96.7072 193° South 373 429 37,000  Level Fort Worth Center
10:52AM 33.5600 -96.7306 192° South 379 436 37,000  Level Fort Worth Center
10:53AM 33.4433 -96.7636 193° South 385 443 37,000  Level Fort Worth Center
10:54AM 33.3494 -96.7867 192° South 391 450 37,000  Level Fort Worth Center
10:55AM 33.2328 -96.8175 192° South 391 450 37,000  Level Fort Worth Center
10:56AM 33.1411 -96.8453 194° South 391 450 37,000  Level Fort Worth Center
10:57AM 33.0242 -96.8758 192° South 391 450 37,000  Level Fort Worth Center
10:58AM 32.9181 -96.9011 191° South 391 450 37,000  Level Fort Worth Center
10:59AM 32.8261 -96.9264 193° South 391 450 37,000  Level Fort Worth Center
11:00AM 32.7136 -96.9592 194° South 391 450 37,000  Level Fort Worth Center
11:01AM 32.6111 -96.9325 168° South 406 467 37,000  Level Fort Worth Center
11:02AM 32.4878 -96.8864 162° South 417 480 37,000 -480 Level Fort Worth Center
11:03AM 32.3750 -96.8428 162° South 423 487 36,100 -1,260 Descending Fort Worth Center
11:04AM 32.2600 -96.7992 162° South 428 493 34,500 -1,500 Descending Fort Worth Center
11:05AM 32.1428 -96.7533 162° South 438 504 33,100 -1,200 Descending Fort Worth Center
11:06AM 32.0361 -96.7125 162° South 445 512 32,100 -1,140 Descending Fort Worth Center
11:07AM 31.9167 -96.6669 162° South 445 512 30,900 -1,080 Descending Fort Worth Center
11:09AM 31.6794 -96.5758 162° South 453 521 29,000 -660 Descending Houston Center
11:10AM 31.5625 -96.5311 162° South 443 510 29,000 -300 Level Houston Center
11:11AM 31.4561 -96.5508 189° South 391 450 28,400 -660 Descending Houston Center
11:12AM 31.3542 -96.5956 201° Southwest 386 444 27,700 -1,020 Descending Houston Center
11:13AM 31.2342 -96.6461 200° South 387 445 26,400 -1,260 Descending Houston Center
11:14AM 31.1303 -96.6775 195° South 384 442 25,200 -1,140 Descending Houston Center
11:15AM 31.0292 -96.6172 153° Southeast 419 482 24,100 -600 Descending Houston Center
11:16AM 30.9497 -96.5156 132° Southeast 420 483 24,000 -960 Descending Houston Center
11:17AM 30.8703 -96.4100 131° Southeast 426 490 22,200 -1,980 Descending Houston Center
11:18AM 30.8311 -96.3611 133° Southeast 420 483 21,100 -2,340 Descending Houston Center
11:18AM 30.7931 -96.3092 130° Southeast 418 481 19,800 -2,520 Descending Houston Center
11:19AM 30.7417 -96.2422 132° Southeast 404 465 18,000 -2,460 Descending Houston Center
11:19AM 30.7197 -96.2125 131° Southeast 402 463 17,300 -1,980 Descending Houston Center
11:20AM 30.6708 -96.1483 132° Southeast 371 427 16,000 -1,980 Descending Houston Center
11:20AM 30.6525 -96.1231 130° Southeast 371 427 15,300 -2,280 Descending Houston Center
11:21AM 30.6022 -96.0592 132° Southeast 350 403 13,700 -2,160 Descending Houston Center
11:21AM 30.5847 -96.0358 131° Southeast 353 406 13,100 -2,280 Descending Houston Center
11:22AM 30.5383 -95.9744 131° Southeast 340 391 11,400 -2,280 Descending Houston Center
11:22AM 30.5242 -95.9522 127° Southeast 343 395 10,800 -1,380 Descending Houston Center
11:23AM 30.4769 -95.8942 133° Southeast 325 374 10,000 -780 Descending Houston Center
11:23AM 30.4539 -95.8625 130° Southeast 319 367 10,000 -120 Level Houston Center
11:24AM 30.4081 -95.8514 168° South 291 335 9,900 -600 Descending Houston Center
11:24AM 30.3744 -95.8456 171° South 304 350 9,400 -1,140 Descending Houston Center
11:25AM 30.3294 -95.8411 175° South 291 335 8,800 -1,020 Descending Houston Center
11:25AM 30.2950 -95.8353 172° South 293 337 8,400 -840 Descending Houston Center
11:26AM 30.2475 -95.8386 183° South 266 306 8,000 -420 Descending Houston Center
11:27AM 30.2214 -95.8403 183° South 271 312 8,000  Level Houston Center
11:27AM 30.1744 -95.8422 182° South 264 304 8,000  Level Houston Center
11:28AM 30.1481 -95.8444 184° South 265 305 8,000 -540 Level Houston Center
11:28AM 30.1014 -95.8481 184° South 261 300 7,500 -1,080 Descending Houston Center
11:29AM 30.0619 -95.8481 180° South 259 298 6,900 -1,080 Descending Houston Center
11:29AM 30.0300 -95.8469 178° South 245 282 6,400 -900 Descending Houston Center
11:30AM 30.0122 -95.8103 119° Southeast 251 289 6,000 -1,020 Descending Houston Center
11:30AM 30.0081 -95.7650 96° East 263 303 5,400 -900 Descending Houston Center
11:31AM 30.0072 -95.7275 91° East 256 295 5,100 -420 Descending Houston Center
11:31AM 29.9972 -95.6914 108° East 224 258 5,000 -120 Descending Houston Center
11:32AM 29.9914 -95.6581 101° East 231 266 5,000 -540 Level Houston Center
11:32AM 29.9928 -95.6172 88° East 236 272 4,500 -1,080 Descending Houston Center
11:33AM 29.9939 -95.5822 88° East 234 269 3,900 -1,380 Descending Houston Center
11:33AM 29.9925 -95.5425 92° East 235 270 3,100 -1,200 Descending Houston Center
11:34AM 29.9933 -95.5075 88° East 237 273 2,700 -660 Descending Houston Center